Regional Weather Roundup
Issued by NWS

Home | Current Version | Previous Version | Graphics & Text | Print | Product List | Glossary On
Versions: 1 2 3 4 5 6 7 8 9 10 11 12 13 14 15 16 17 18 19 20 21 22 23 24 25 26 27 28 29 30 31 32 33 34 35 36 37 38 39 40 41 42 43 44 45 46 47 48 49 50
793
ASUS45 KBOI 252010
RWRID

IDAHO REGIONAL WEATHER ROUNDUP
NATIONAL WEATHER SERVICE BOISE ID
200 PM MDT WED MAY 25 2016

NOTE: "FAIR" INDICATES FEW OR NO CLOUDS BELOW 12000 FEET
WITH NO SIGNIFICANT WEATHER AND/OR OBSTRUCTIONS TO VISIBILITY

IDZ012-014-252100-
SOUTHWEST IDAHO


CITY           SKY/WX    TMP DP  RH WIND       PRES   REMARKS
BOISE          MOSUNNY   68  38  33 NW17G25   29.99F
CALDWELL       MOSUNNY   70  40  33 W9G17     30.00F
MOUNTAIN HOME  PTSUNNY   70  42  36 NW10G17   29.99F
$$

IDZ016-017-252100-
SOUTHCENTRAL IDAHO


CITY           SKY/WX    TMP DP  RH WIND       PRES   REMARKS
BURLEY         MOSUNNY   62  40  44 VRB7G18   30.01F
JEROME         MOSUNNY   63  40  42 W12G23    30.02F
TWIN FALLS     MOSUNNY   62  40  44 SW10G17   30.03F
$$

IDZ019>023-252100-
SOUTHEAST IDAHO


CITY           SKY/WX    TMP DP  RH WIND       PRES   REMARKS
IDAHO FALLS    TSTM      51  43  74 N6        30.02S
POCATELLO      CLOUDY    64  41  42 W16       30.01F
REXBURG        CLOUDY    53  41  63 W9        30.01F
$$

IDZ006-010-011-018-031-032-252100-
CENTRAL IDAHO MOUNTAINS


CITY           SKY/WX    TMP DP  RH WIND       PRES   REMARKS
MCCALL         CLOUDY    58  31  35 N9G20     30.03S
HAILEY         LGT RAIN  52  41  66 NW12G20   30.05R
STANLEY          N/A     55  30  38 VRB6      30.05F
SALMON         MOSUNNY   61  36  39 CALM      29.98F
CHALLIS        PTSUNNY   60  37  42 N6        30.00F
$$

IDZ002-004-006-007-026-252100-
NORTHERN IDAHO


CITY           SKY/WX    TMP DP  RH WIND       PRES   REMARKS
LEWISTON       SUNNY     69  48  47 CALM      30.02F
LOWELL           N/A     58  54  86 CALM      30.05S
COEUR D`ALENE  PTSUNNY   66  52  59 W14       30.00S
MULLAN PASS    CLOUDY    50  43  77 VRB3      30.08R
$$




USA.gov is the U.S. government's official web portal to all federal, state and local government web resources and services.